Regional Weather Roundup
Issued by NWS Midland/Odessa, TX

Skip options and go directly to product.
Home | Oldest Version | Next Version | Current Version | All | Text Only | Save Text | Print | Product List | Glossary On

Skip product version selection by date and time.   
197
ASUS44 KMAF 310802
RWRMAF
MIDLAND AREA WEATHER ROUNDUP
NATIONAL WEATHER SERVICE MIDLAND TX
300 AM CDT SUN AUG 31 2014

...IN SOUTHWEST TEXAS AND SOUTHEAST NEW MEXICO...

CITY           SKY/WX    TMP DP  RH WIND       PRES   REMARKS
ALPINE         CLEAR     74  57  55 S9        30.15R
ANDREWS        FAIR      78  60  55 S14       30.00S
ARTESIA        NOT AVBL
BIG SPRING     CLEAR     79  64  60 SE12      29.99F
CARLSBAD       CLEAR     78  55  44 S9        29.98R
DRYDEN           N/A     85  64  49 SE10      29.95S
FORT STOCKTON  CLEAR     77  61  57 S12       29.99S
GUAD PASS      CLEAR     73  49  42 NE15      30.14F
HOBBS          CLEAR     75  59  57 S10       30.03S
MARFA          CLEAR     66  55  68 S6        30.15S
MIDLAND AIRPK  NOT AVBL
MIDLAND INTL   CLEAR     79  63  57 S14       29.99S
ODESSA         CLEAR     79  61  53 S12       30.00F
PECOS          CLEAR     76  62  60 E8        29.95S
PRESIDIO       FAIR      84  58  41 NE6       29.97S
SEMINOLE       CLEAR     74  60  60 S7        30.01S
SNYDER         CLEAR     73  65  74 SE6       29.98S
WINK           PTCLDY    80  63  55 SE12      29.96S
$$
...OTHER STATIONS IN TEXAS...

CITY           SKY/WX    TMP DP  RH WIND       PRES   REMARKS
ABILENE        CLEAR     77  66  68 S9        29.95F
AMARILLO       PTCLDY    75  54  47 S18       29.97F
AUSTIN         PTCLDY    75  72  90 S5        29.96S
BROWNSVILLE    PTCLDY    81  79  94 SE7       29.91F
CORPUS CHRISTI MOCLDY    78  76  93 SE5       29.93F
DALLAS FTW     CLEAR     78  69  73 E5        29.92R
DEL RIO        CLEAR     84  69  60 SE10      29.93R
EL PASO        CLEAR     77  47  34 SE7       29.99R
HOUSTON INT    NOT AVBL
LUBBOCK        PTCLDY    74  60  61 S12       29.99S
SAN ANGELO     CLEAR     74  65  73 CALM      29.96S
SAN ANTONIO    MOCLDY    79  72  79 S8        29.98S
WACO           CLEAR     79  72  79 S14       29.95R
WICHITA FALLS  NOT AVBL
$$
...OTHER LOCATIONS IN NEW MEXICO...

CITY           SKY/WX    TMP DP  RH WIND       PRES   REMARKS
ALAMAGORDO     CLEAR     68  43  40 S3        30.01S
ALBUQUERQUE    PTCLDY    73  41  31 S10       30.06S
CANNON AFB     CLEAR     70  49  46 S9        30.04R
CLOVIS           N/A     66  48  52 S7        30.06S
HOLLOMAN AFB   CLEAR     73  43  33 SE10      29.99R
ROSWELL        CLEAR     71  46  40 S8        29.99R
RUIDOSO        CLEAR     63  39  42 W3        30.22S
SANTA FE       CLEAR     63  41  44 CALM      30.11F
TRUTH OR CONSE CLEAR     73  43  33 VRB5      30.05R
TUCUMCARI      CLEAR     77  42  28 SW15      29.97R
$$

USA.gov is the U.S. government's official web portal to all federal, state and local government web resources and services.